Regional Weather Roundup
Issued by NWS

Home | Current Version | Previous Version | Text Only | Print | Product List | Glossary On
Versions: 1 2 3 4 5 6 7 8 9 10 11 12 13 14 15 16 17 18 19 20 21 22 23 24 25 26 27 28 29 30 31 32 33 34 35 36 37 38 39 40 41 42 43 44 45 46 47 48 49 50
000
ASUS43 KTOP 280208
RWRKS

WEATHER ROUNDUP FOR KANSAS
NATIONAL WEATHER SERVICE GOODLAND KS
900 PM CDT THU APR 27 2017

NOTE:  "FAIR" INDICATES FEW OR NO CLOUDS BELOW 12,000 FEET WITH NO
SIGNIFICANT WEATHER AND/OR OBSTRUCTIONS TO VISIBILITY.

KSZ001>006-013>018-027>032-041>047-280300-
NORTHWEST KANSAS

CITY           SKY/WX    TMP DP  RH WIND       PRES   REMARKS
GOODLAND       LGT RAIN  45  42  89 SE7       29.54R
HAYS           CLOUDY    48  46  93 E20G26    29.59R
HILL CITY      CLOUDY    49  44  83 E21G26    29.59R
RUSSELL        CLOUDY    49  46  90 E22G30    29.59S
$$

KSZ061>065-074>080-084>089-280300-
SOUTHWEST KANSAS

CITY           SKY/WX    TMP DP  RH WIND       PRES   REMARKS
DODGE CITY     MOCLDY    54  43  66 E21G30    29.46S
ELKHART          N/A     57  35  43 W2          N/A
GARDEN CITY    PTCLDY    54  42  64 E21G29    29.44R
GREAT BEND     CLOUDY    51  45  79 E20       29.57S
LIBERAL        CLOUDY    61  46  57 W9        29.44R
PRATT          PTCLDY    51  41  69 SE18      29.54S
$$

KSZ066>073-081>083-090>101-280300-
SOUTHEAST KANSAS

CITY           SKY/WX    TMP DP  RH WIND       PRES   REMARKS
CHANUTE        CLOUDY    54  47  77 S5        29.71R
COFFEYVILLE    CLOUDY    57  50  77 E7        29.69S
HUTCHINSON     PTCLDY    53  45  74 E16G24    29.60F
MEDICINE LODGE   N/A     56  43  61 E12G25    29.53S
NEWTON         MOCLDY    52  46  80 E12       29.64F
PARSONS        MOCLDY    56  47  71 CALM      29.71R
WICHITA INTL   MOCLDY    56  45  66 SE16G23   29.61S
WICHITA JABRA  CLOUDY    53  46  77 E12       29.62F
WICHITA MCCONL CLOUDY    55  44  66 SE13      29.61F
WINFIELD       PTCLDY    57  44  62 E12       29.63S
$$

KSZ007>012-019>026-033>040-048>060-102>105-280300-
NORTHEAST KANSAS

CITY           SKY/WX    TMP DP  RH WIND       PRES   REMARKS
CONCORDIA      CLOUDY    48  46  93 E8        29.69R
EMPORIA        CLOUDY    52  47  83 E9        29.69R
LAWRENCE       CLOUDY    52  49  89 NE7       29.72F
MANHATTAN      CLOUDY    51  47  86 E8        29.70S
MARYSVILLE     RAIN      48  46  93 SE5       29.74
OLATHE IND     CLOUDY    52  48  86 NE9       29.71F
OLATHE EXE     CLOUDY    52  50  93 E9        29.71F
SALINA         LGT RAIN  53  47  79 E13       29.66R
TOPEKA BILLARD CLOUDY    53  47  79 E8        29.72F
TOPEKA FORBES  CLOUDY    53  48  83 E7        29.71F
$$



USA.gov is the U.S. government's official web portal to all federal, state and local government web resources and services.